NOAA 16 DEB

Satellite information

Favourite Embed

Satellite Type and Status

DEBRISIN ORBIT

Key statistics

Satellite NOAA 16 DEB at a glance.

Uptime

8993

Days in orbit

Revolutions

≈ 14.6

Per day

Orbit

SSO

Sun Synchronous Orbit

Inclination

99.0

Latest

Satellite identification and parameters

Extended collection of information and parameters for NOAA 16 DEB.

Object identification

Identified? True

Debris? True

Object name: NOAA 16 DEB

International designator: 2000-055JR

Object number (NORAD): 41372

Object ID (CCSDS): 41372

Country: UNITED STATES OF AMERICA (US)

Current information (Y/N): Y

RCS size: SMALL

Orbital parameters

Period: 98.756 minutes

Inclination: 98.9853 deg

SMA: 7077.339 km

Apoapsis: 738.119 km

Periapsis: 660.289 km

RAAN: 25.1987 deg

Eccentricy: 0.0054985

Argument of periapsis: 129.7443 deg

Mean anomaly: 230.8616 deg

Mean motion: 14.58135046 rev/day

Mean motion (dot): 0.00013419 rev/day2

B* drag term: 0.0028589 1/REarth

Two-line elements (TLE)

Creation date: May 6, 2025, 3:54 a.m.

Reference frame: TEME

Reference center: EARTH

Epoch: May 5, 2025, 3:52 a.m. UTC

TLE line 0: 0 NOAA 16 DEB

TLE line 1: 1 41372U 00055JR 25125.16156437 .00013419 00000-0 28589-2 0 9997

TLE line 2: 2 41372 98.9853 25.1987 0054985 129.7443 230.8616 14.58135046486410

Live tracking on map

Real-time ground track for satellite NOAA 16 DEB.

In-orbit conjunctions

A list of the most updated potential collisions computed for object NOAA 16 DEB.

Target Orbit TCA Probability of collision Miss distance Type
ALEXIS LEO 2024-12-30 07:05:33 0.0001595993 523.0 (m) PAYLOAD
CZ-2D R/B SSO 2024-07-31 11:53:30 0.0001915848 969.0 (m) ROCKET BODY

Associated space launch

The NOAA K, L and M POES satellites begin the fifth generation of improved environmental monitoring in support of NOAA missions. The instrument payload has significant improvements and additions/deletions. The instrument changes have effected the spacecraft subsystems and data formats.

NOAA 16 DEB was lifted into orbit during the mission ‘Titan II SLV | NOAA 16’, on board a Titan II SLV space rocket.

The launch took place on Sept. 21, 2000, 10:22 a.m. from Space Launch Complex 4W.

For more information about the launch, click the button.

Launch to space Titan II SLV | NOAA 16
Titan II SLV | NOAA 16

Agency: N/A

Status: Launch Successful

Launch date: Sept. 21, 2000, 10:22 a.m. UTC

Rocket: Titan II SLV

Launch pad: Space Launch Complex 4W

Location: Vandenberg SFB, CA, USA

...

Latest news about this satellite

There are no fresh news available about this satellite. Check back as we update our databases every day.


Newsletter sign-up

Weekly statistics, charts and insights to help you stay on top of the space industry.